Location: Unspecified
(0.0000°N, 0.0000°E)
Time: 00:00:52
(UTC+01:00)

Palapa 6 Rocket - Visible Passes

Search period start: 01 March 2015 00:00
Search period end: 11 March 2015 00:00
Orbit: 486 x 1229 km, 22.7° (Epoch: 28 February)

Date Brightness Start Highest point End Pass type
(mag) Time Alt. Az. Time Alt. Az. Time Alt. Az.
01 Mar 6.7 04:23:24 10° NNE 04:23:24 10° NNE 04:23:31 10° NNE visible
01 Mar 6.3 06:07:37 10° NNW 06:09:37 11° N 06:11:30 10° N visible
01 Mar 5.7 20:44:54 10° S 20:46:48 12° SSE 20:46:58 12° SSE visible
02 Mar 6.4 05:54:36 10° NNW 05:56:55 11° N 05:59:09 10° NNE visible
02 Mar 5.5 20:32:02 10° S 20:34:08 13° SSE 20:34:53 12° SSE visible
03 Mar 6.4 05:41:32 10° NNW 05:44:12 12° N 05:46:48 10° NNE visible
03 Mar 5.3 20:19:11 10° S 20:21:28 14° SSE 20:22:51 13° SE visible
04 Mar 6.4 05:28:54 11° NNW 05:31:27 12° N 05:34:25 10° NNE visible
04 Mar 5.2 20:06:19 10° S 20:08:48 15° SSE 20:10:51 12° SE visible
04 Mar 6.2 21:52:39 10° SW 21:52:52 11° SW 21:52:52 11° SW visible
05 Mar 6.4 05:16:45 12° N 05:18:42 13° N 05:22:02 10° NNE visible
05 Mar 5.0 19:53:29 10° SSW 19:56:07 16° SSE 19:58:54 11° ESE visible
05 Mar 5.8 21:40:03 10° WSW 21:40:55 16° SW 21:40:55 16° SW visible
06 Mar 6.4 05:04:37 13° N 05:05:55 13° N 05:09:37 10° NE visible
06 Mar 4.8 19:40:38 10° SSW 19:43:26 18° SSE 19:46:37 10° ESE visible
06 Mar 5.3 21:27:27 10° WSW 21:29:01 22° WSW 21:29:01 22° WSW visible
07 Mar 6.4 04:52:30 14° N 04:53:07 14° N 04:57:10 10° NE visible
07 Mar 6.0 06:37:36 10° NW 06:43:54 25° NNE 06:49:56 10° ENE visible
07 Mar 4.7 21:14:54 10° WSW 21:17:10 32° WSW 21:17:10 32° WSW visible
08 Mar 6.4 04:40:26 15° NNE 04:40:26 15° NNE 04:44:39 10° NE visible
08 Mar 5.9 06:24:20 10° NW 06:31:00 28° NNE 06:37:26 10° ENE visible
08 Mar 3.9 21:02:22 10° WSW 21:05:20 46° W 21:05:20 46° W visible
09 Mar 6.4 04:28:25 16° NNE 04:28:25 16° NNE 04:32:07 10° NE visible
09 Mar 5.7 06:11:07 10° NW 06:18:03 31° NNE 06:24:50 10° E visible
09 Mar 3.4 20:49:52 10° WSW 20:53:33 54° NW 20:53:33 54° NW visible
10 Mar 6.4 04:16:26 16° NNE 04:16:26 16° NNE 04:19:32 10° NE visible
10 Mar 5.6 05:58:26 12° NW 06:05:04 35° NNE 06:12:11 10° E visible
10 Mar 3.6 20:37:24 10° W 20:41:11 44° NNW 20:41:47 41° N visible
